Regional Weather Roundup
Issued by NWS

Home | Current Version | Previous Version | Text Only | Print | Product List | Glossary On
Versions: 1 2 3 4 5 6 7 8 9 10 11 12 13 14 15 16 17 18 19 20 21 22 23 24 25 26 27 28 29 30 31 32 33 34 35 36 37 38 39 40 41 42 43 44 45 46
000
ASUS45 KBOU 022110
RWRCO

WEATHER ROUNDUP FOR COLORADO
NATIONAL WEATHER SERVICE DENVER/BOULDER CO
200 PM MST TUE MAR 02 2021

NOTE: "FAIR" INDICATES FEW OR NO CLOUDS BELOW 12000 FEET WITH NO
SIGNIFICANT WEATHER AND/OR OBSTRUCTIONS TO VISIBILITY.

COZ001>005-013-030-031-022200-
...NORTHWEST COLORADO...

CITY           SKY/WX    TMP DP  RH WIND       PRES   REMARKS
CRAIG          FAIR      43  15  32 SE5       30.14F
HAYDEN         FAIR      32  19  58 S3        30.15F
MEEKER         FAIR      44  13  28 S3        30.11F
RANGELY        FAIR      48  13  24 SW5       30.13F
RABBIT EARS PA FAIR      30  19  64 W5        30.17F WCI  25
STEAMBOAT SPGS FAIR      34  15  46 CALM      30.12F
WALDEN         FAIR      39  12  33 S12       30.12F
$$

COZ006>008-011-022200-
...WEST CENTRAL VALLEYS...

CITY           SKY/WX    TMP DP  RH WIND       PRES   REMARKS
GRAND JUNCTION FAIR      52   8  17 W3        30.12F
MONTROSE       FAIR      50  12  21 W6        30.13F
EAGLE          FAIR      44  13  28 CALM      30.13F
RIFLE          FAIR      50  16  25 W9        30.12F
DELTA          FAIR      56   6  13 CALM      30.12F
NUCLA          NOT AVBL
$$

COZ017>023-064>068-022200-
...SOUTHWEST COLORADO...

CITY           SKY/WX    TMP DP  RH WIND       PRES   REMARKS
DURANGO        FAIR      48   9  20 W5        30.12F
CORTEZ         FAIR      51   9  18 SW6       30.12F
PAGOSA SPRINGS FAIR      47   6  19 S6        30.14F
TELLURIDE      FAIR      41   1  19 W13G18    30.16F
WOLF CREEK PAS FAIR      30   0  27 SW10      30.26F WCI  21
$$

COZ009-010-012-014-032>034-037-058>063-022200-
...CENTRAL COLORADO...

CITY           SKY/WX    TMP DP  RH WIND       PRES   REMARKS
ASPEN          FAIR      43  11  27 N6        30.11F
BUENA VISTA    FAIR      51   1  13 SE15      30.05F
COPPER MTN     FAIR      34  -4  19 SW13        N/A  WCI  25
BERTHOUD PASS  FAIR      21   7  53 NW14G22   30.17S WCI   8
DAKOTA HILL    FAIR      34   1  25 W12G22    30.12F WCI  25
COTTONWOOD PAS FAIR      45  -4  13 S6        30.12S
GUNNISON       FAIR      27  12  53 SE3       30.18F
GRANBY         FAIR      30  14  51 CALM      30.14F
KREMMLING      FAIR      30  14  51 CALM      30.17F
LEADVILLE      FAIR      44   3  18 N10       30.10F
MONARCH PASS   FAIR      30  -4  22 W30G36    30.28F WCI  15
SALIDA         FAIR      54  -3  10 SW20      30.13F
SUNLIGHT       FAIR      30   9  40 SW7       30.21F WCI  23
WILKERSON PASS FAIR      39  -6  14 S9G16     30.17F
$$

COZ069>075-022200-
...SAN LUIS VALLEY/SANGRE DE CRISTO MOUNTAINS...

CITY           SKY/WX    TMP DP  RH WIND       PRES   REMARKS
ALAMOSA        FAIR      47   2  15 W5        30.11F
DEL NORTE      FAIR      46   7  20 E9        30.12F
LA VETA PASS   FAIR      32   5  32 W12G20    30.13F WCI  23
SAGUACHE       FAIR      46  10  23 S8        30.12F
$$

COZ035-036-038>040-022200-
...NORTHERN COLORADO FRONT RANGE...

CITY           SKY/WX    TMP DP  RH WIND       PRES   REMARKS
DENVER INTL AP FAIR      61  11  14 SE6       29.95F
AURORA         MOSUNNY   60   7  12 E6        29.96F
WATKINS        NOT AVBL
ERIE           FAIR      63   6  10 SE3       29.94F
BOULDER        FAIR      61  14  16 SE6       29.94F
CENTENNIAL     FAIR      58   8  13 SE6       29.96F
BROOMFIELD     SUNNY     63  10  13 CALM      29.97F
FORT COLLINS   FAIR      65  15  14 VRB6      29.94F
LONGMONT       FAIR      66   7   9 S3        29.95F
$$

COZ041-046-047-076>085-087-088-022200-
...PIKES PEAK/PALMER DIVIDE AND SOUTHERN FOOTHILLS...

CITY           SKY/WX    TMP DP  RH WIND       PRES   REMARKS
COLO. SPRINGS  FAIR      61   9  12 SE8       29.98F
A. F. ACADEMY  FAIR      60  -1   8 S13       29.95F
SCHRIEVER AFB  NOT AVBL
CHEYENNE MTN   FAIR      56   3  11 SE7       29.95F
ELLICOTT       FAIR      60   1   9 CALM      29.99F
FALCON         FAIR      60   2   9 SE6       30.01F
FORT CARSON    FAIR      62  -3   7 E6        29.94F
LIMON          FAIR      62   5  10 VRB3      29.95F
MONUMENT HILL  FAIR      54   3  13 NE7       30.01F
CANON CITY     FAIR      70  -4   5 SW13      29.93F
WALSENBURG     NOT AVBL
TRINIDAD       FAIR      66   2   8 MISG      29.95F
$$

COZ042>045-048>051-090-091-022200-
...NORTHEAST COLORADO...

CITY           SKY/WX    TMP DP  RH WIND       PRES   REMARKS
GREELEY        FAIR      64   9  11 CALM      29.95F
AKRON          FAIR      64  10  12 N6        29.94F
BURLINGTON     NOT AVBL
WRAY           FAIR      70  12  11 NE8       29.92F
YUMA           FAIR      63   9  12 CALM      29.93F
STERLING       FAIR      68  18  14 E3        29.90F
HOLYOKE        FAIR      70  14  11 NW8       29.92F
FORT MORGAN    FAIR      64   6  10 NW6       29.95F
$$

COZ086-089-092>099-022200-
...SOUTHEAST COLORADO...

CITY           SKY/WX    TMP DP  RH WIND       PRES   REMARKS
PUEBLO         FAIR      67   9  10 E6        29.92F
LA JUNTA       FAIR      68   2   7 VRB3      29.92F
LAMAR          FAIR      65   8  10 CALM      29.91F
SPRINGFIELD      N/A     71  -5   5 S15       29.92F
$$




USA.gov is the U.S. government's official web portal to all federal, state and local government web resources and services.